DW7048 Thessaloniki GR current weather conditions

sailwx.info

Wind from 084 at 0 knots gusting 1

Air temperature 7.8° C
Dewpoint 5.4° C

Last reported at 2019-Dec-05 22:45 UTC.
Time now 2019-Dec-06 00:16 UTC

Location: N 40°34' E 022°58'.
View on Google Maps.

See reports from other nearby stations

  
Tides and Currents Weather Stations Pressure Air Temp Water Temp Dewpoint Dewpoint Depression Visibility Wind Speed Wind Dir Waves Ship Positions
date/time (UTC)wind fromknots sea level pressurealtimeterstation pressurevisibilityair tempwater tempwave heightnotes
2019-Dec-05 22:45 084 0 gusting 1 7.8
2019-Dec-05 22:32 093 0 gusting 2 7.8
2019-Dec-05 22:16 103 0 gusting 0 7.8
2019-Dec-05 22:01
2019-Dec-05 21:47 094 7.8
2019-Dec-05 21:31 096 7.8
2019-Dec-05 21:16 089 0 gusting 0 8.3
2019-Dec-05 21:01
2019-Dec-05 20:46 089 8.3
2019-Dec-05 20:31 089 8.3
2019-Dec-05 20:15 089 8.9
2019-Dec-05 20:01 089 0 gusting 1 8.3
2019-Dec-05 19:46 090 8.9
2019-Dec-05 19:31 095 8.9
2019-Dec-05 19:15 094 8.9
2019-Dec-05 19:01 094 8.3
2019-Dec-05 18:45 104 8.3
2019-Dec-05 18:31 114 8.3
2019-Dec-05 18:16 100 8.3
2019-Dec-05 18:00 084 8.9
2019-Dec-05 17:45 110 0 gusting 1 8.9
2019-Dec-05 17:31 047 8.9
2019-Dec-05 17:16 049 8.9
2019-Dec-05 17:00 047 8.9
2019-Dec-05 16:46 070 0 gusting 1 8.9
2019-Dec-05 16:30 077 0 gusting 2 9.4
2019-Dec-05 16:15 082 9.4
2019-Dec-05 16:01 310 9.4
2019-Dec-05 15:45 321 1 gusting 5 9.4
2019-Dec-05 15:30 330 1 gusting 3 9.4
2019-Dec-05 15:16 298 2 gusting 4 9.4
2019-Dec-05 15:01 304 0 gusting 2 9.4
2019-Dec-05 14:45 321 9.4
2019-Dec-05 14:30 263 10.0
2019-Dec-05 14:15 285 1 gusting 3 10.0
2019-Dec-05 14:01 318 10.0
2019-Dec-05 13:45 326 1 gusting 3 10.0
2019-Dec-05 13:30 304 9.4
2019-Dec-05 13:16 274 0 gusting 3 9.4
2019-Dec-05 13:01 326 9.4
2019-Dec-05 12:45 277 1 gusting 4 9.4
2019-Dec-05 12:30 300 1 gusting 3 9.4
2019-Dec-05 12:15 289 1 gusting 4 10.0
2019-Dec-05 12:00 294 0 gusting 2 10.0
2019-Dec-05 11:30 207 10.6
2019-Dec-05 11:15 212 10.0
2019-Dec-05 11:00 156 10.0
2019-Dec-05 10:45 114 0 gusting 1 10.0
2019-Dec-05 10:30 160 0 gusting 1 10.0
2019-Dec-05 10:15 142 10.0
2019-Dec-05 10:00 168 9.4
2019-Dec-05 09:45 101 9.4
2019-Dec-05 09:31 141 8.9
2019-Dec-05 09:16 127 8.9
2019-Dec-05 09:01 098 0 gusting 1 8.3
2019-Dec-05 08:47 083 0 gusting 1 8.3
2019-Dec-05 08:31 098 8.3
2019-Dec-05 08:16 113 8.3
2019-Dec-05 08:01 095 7.8
2019-Dec-05 07:46 105 7.8
2019-Dec-05 07:30 086 0 gusting 2 7.2
2019-Dec-05 07:16 087 0 gusting 3 7.2
2019-Dec-05 07:01 077 1 gusting 3 6.7
2019-Dec-05 06:46 086 0 gusting 2 6.7
2019-Dec-05 06:31 086 1 gusting 3 6.7
2019-Dec-05 06:16 118 1 gusting 5 6.7
2019-Dec-05 06:01 132 6.7
2019-Dec-05 05:45 088 6.7
2019-Dec-05 05:30 085 0 gusting 2 6.7
2019-Dec-05 05:15 070 6.7
2019-Dec-05 05:00 108 1 gusting 3 6.7
2019-Dec-05 04:46 111 0 gusting 2 6.7
2019-Dec-05 04:31 077 0 gusting 2 6.7
2019-Dec-05 04:15 127 0 gusting 4 7.2
2019-Dec-05 04:01 108 7.2
2019-Dec-05 03:45 084 7.2
2019-Dec-05 03:30 085 0 gusting 3 7.2
2019-Dec-05 03:15 046 7.8
2019-Dec-05 03:00 046 0 gusting 0 7.2
2019-Dec-05 02:46 046 7.2
2019-Dec-05 02:30 046 7.2
2019-Dec-05 02:15 046 7.2
2019-Dec-05 02:00 092 7.2
2019-Dec-05 01:45 092 0 gusting 1 7.2
2019-Dec-05 01:30 105 7.8
2019-Dec-05 01:15 105 7.2
2019-Dec-05 01:00 105 7.2
2019-Dec-05 00:45 105 7.2
2019-Dec-05 00:30 074 7.2
2019-Dec-05 00:15 060 0 gusting 2 7.2
2019-Dec-05 00:00 068 0 gusting 1 7.2
2019-Dec-04 23:45 083 0 gusting 1 6.7
2019-Dec-04 23:30 062 0 gusting 1 6.7
2019-Dec-04 23:17 082 0 gusting 2 7.2
2019-Dec-04 23:01 085 7.2
2019-Dec-04 22:46 063 7.2
2019-Dec-04 22:31 060 7.2
2019-Dec-04 22:16 061 7.2
2019-Dec-04 22:03 061 7.2
2019-Dec-04 21:46 061 7.2
2019-Dec-04 21:31 061 7.2
2019-Dec-04 21:17 061 1 gusting 2 7.2
2019-Dec-04 21:02 072 1 gusting 2 7.2
2019-Dec-04 20:46 080 0 gusting 2 7.2
2019-Dec-04 20:33 071 7.8
2019-Dec-04 20:16 061 7.8
2019-Dec-04 20:01 060 7.8
2019-Dec-04 19:46 061 7.8
2019-Dec-04 19:31 061 7.8
2019-Dec-04 19:16 061 7.8
2019-Dec-04 19:01 046 7.8
2019-Dec-04 18:45 053 7.8
2019-Dec-04 18:31 030 7.8
2019-Dec-04 18:15 336 7.8
2019-Dec-04 18:01 336 7.8
2019-Dec-04 17:45 335 7.8
2019-Dec-04 17:32 330 7.8
2019-Dec-04 17:16 013 0 gusting 4 7.8
2019-Dec-04 17:01 331 0 gusting 3 7.8
2019-Dec-04 16:46 304 1 gusting 3 7.2
2019-Dec-04 16:30 359 2 gusting 5 7.2
2019-Dec-04 16:15 329 2 gusting 5 7.8
2019-Dec-04 16:01 005 1 gusting 5 7.2
2019-Dec-04 15:46 335 2 gusting 5 7.2
2019-Dec-04 15:30 347 2 gusting 6 7.2
2019-Dec-04 15:16 326 2 gusting 4 7.2
2019-Dec-04 15:00 330 1 gusting 6 7.2
2019-Dec-04 14:46 323 2 gusting 6 7.2
2019-Dec-04 14:30 347 0 gusting 6 7.2
2019-Dec-04 14:15 333 3 gusting 7 7.2
2019-Dec-04 14:00 354 3 gusting 6 7.8
2019-Dec-04 13:45 325 0 gusting 2 7.8
2019-Dec-04 13:30 356 2 gusting 3 7.8
2019-Dec-04 13:15 318 0 gusting 5 7.8
2019-Dec-04 13:00 326 4 gusting 7 7.8
2019-Dec-04 12:45 011 1 gusting 5 7.2
2019-Dec-04 12:30 312 3 gusting 7 7.2
2019-Dec-04 12:15 341 3 gusting 12 7.2
2019-Dec-04 12:00 330 3 gusting 11 6.7
2019-Dec-04 11:47 015 5 gusting 12 6.7
2019-Dec-04 11:34 331 4 gusting 11 6.7
2019-Dec-04 11:16 356 3 gusting 9 6.1
2019-Dec-04 11:02 060 4 gusting 10 6.1
2019-Dec-04 10:46 340 4 gusting 8 6.1
2019-Dec-04 10:34 325 3 gusting 9 6.1
2019-Dec-04 10:17 016 4 gusting 12 5.6
2019-Dec-04 10:02 340 4 gusting 12 5.6
2019-Dec-04 09:46 283 6 gusting 10 5.0
2019-Dec-04 09:32 330 3 gusting 11 5.0
2019-Dec-04 09:16 318 6 gusting 13 5.0
2019-Dec-04 09:01 340 4 gusting 13 5.0
2019-Dec-04 08:46 356 7 gusting 13 5.0
2019-Dec-04 08:31 326 6 gusting 13 5.0
2019-Dec-04 08:16 342 8 gusting 14 4.4
2019-Dec-04 08:01 321 6 gusting 13 4.4
2019-Dec-04 07:46 327 6 gusting 13 4.4
2019-Dec-04 07:31 337 3 gusting 12 4.4
2019-Dec-04 07:16 329 5 gusting 11 4.4
2019-Dec-04 07:02 318 5 gusting 11 3.9
2019-Dec-04 06:46 351 5 gusting 10 3.9
2019-Dec-04 06:31 341 3 gusting 7 3.9
2019-Dec-04 06:17 019 5 gusting 10 3.9
2019-Dec-04 06:00 316 6 gusting 11 3.9
2019-Dec-04 05:46 335 5 gusting 12 3.9
2019-Dec-04 05:30 338 6 gusting 13 3.9
2019-Dec-04 05:15 340 6 gusting 12 3.9
2019-Dec-04 05:00 335 6 gusting 13 3.9
2019-Dec-04 04:45 006 6 gusting 14 3.9
2019-Dec-04 04:30 329 6 gusting 13 3.9
2019-Dec-04 04:15 013 7 gusting 13 3.9
2019-Dec-04 04:00 022 7 gusting 13 3.9
2019-Dec-04 03:45 330 6 gusting 13 4.4
2019-Dec-04 03:30 334 7 gusting 12 4.4
2019-Dec-04 03:15 036 4 gusting 12 4.4
2019-Dec-04 03:00 337 6 gusting 13 4.4
2019-Dec-04 02:47 347 6 gusting 13 5.0
2019-Dec-04 02:33 309 5 gusting 12 5.0
2019-Dec-04 02:16 306 5 gusting 10 5.0
2019-Dec-04 02:01 013 3 gusting 11 5.0
2019-Dec-04 01:47 340 7 gusting 14 5.0
2019-Dec-04 01:31 318 9 gusting 17 5.0
2019-Dec-04 01:17 018 5 gusting 14 5.0
2019-Dec-04 01:02 345 6 gusting 13 5.0
2019-Dec-04 00:45 019 7 gusting 14 5.0
2019-Dec-04 00:32 342 7 gusting 14 5.6
2019-Dec-04 00:16 333 6 gusting 13 5.6
2019-Dec-04 00:01 335 7 gusting 15 5.6